Theta_e
336 341 344 344 346 347 346 346 348 348 347 346 344 342 341 339 338 337 336 336 336 336 337 337 336 335 335 335 335 335 333 332 331 331 331 332 333 333 333 332 333 329 331
338 341 343 344 346 346 346 348 348 347 346 346 343 341 339 338 337 337 336 336 335 335 335 334 333 332 333 333 333 333 333 331 329 329 330 330 331 333 332 330 330 329 330
338 339 340 344 346 346 346 347 347 347 346 345 343 343 340 339 338 337 336 336 335 335 334 333 332 332 333 333 333 333 333 331 329 328 330 325 325 331 333 334 332 331 330
338 338 338 343 346 345 346 346 346 346 345 345 345 343 342 339 338 338 337 336 336 335 335 334 333 333 333 333 332 331 331 330 330 332 324 321 320 330 330 333 334 334 332
335 336 339 343 346 345 344 345 345 344 343 342 341 338 337 336 335 337 338 336 334 336 335 335 334 333 333 333 332 331 332 332 333 331 321 319 321 332 333 332 332 333 334
332 337 340 343 346 345 344 342 341 340 339 338 337 335 334 334 333 332 334 335 337 334 335 335 334 333 332 332 333 333 333 332 332 324 322 325 326 333 334 335 334 335 337
327 332 338 341 344 345 344 340 339 337 337 336 336 335 333 333 332 332 331 331 331 330 330 331 331 332 332 333 334 334 333 332 328 324 324 324 326 332 335 337 336 336 336
332 332 337 335 339 342 341 340 339 337 336 335 333 333 333 333 333 333 333 333 333 333 333 334 334 334 334 335 335 335 334 331 328 326 325 325 331 333 336 337 337 337 337
336 330 333 335 336 335 337 338 338 337 337 336 335 334 334 334 334 332 331 331 332 332 333 334 334 335 335 336 336 335 332 330 325 327 328 325 334 335 337 338 338 338 337
334 332 331 336 336 333 333 333 334 335 335 335 334 332 330 330 331 331 330 333 333 334 335 335 335 335 336 336 335 333 330 328 325 326 327 327 335 335 337 338 338 339 339
330 328 328 329 326 329 333 331 332 332 332 331 330 328 328 329 330 330 329 331 331 332 332 334 335 335 334 331 331 330 328 327 327 328 328 330 334 336 336 336 336 336 336
330 332 332 328 327 329 334 333 334 336 335 335 334 329 330 330 330 328 324 326 328 328 331 333 335 333 328 327 329 328 327 330 330 329 329 332 335 335 335 333 332 333 334
330 331 333 332 329 328 330 332 334 333 334 332 332 334 331 329 329 328 329 326 326 321 327 330 332 330 332 331 330 330 330 330 329 329 329 330 333 331 331 333 333 332 332
328 330 332 333 329 328 330 331 331 331 331 330 332 333 329 328 329 329 329 330 330 331 332 333 331 331 331 330 332 332 329 329 327 331 325 323 328 330 331 333 333 333 334
326 328 330 329 328 329 329 329 328 329 330 331 331 331 330 330 330 331 331 332 333 333 331 330 330 329 329 330 330 329 329 329 328 322 319 318 324 329 330 331 330 330 331
324 325 327 327 328 328 326 325 324 326 329 331 332 333 333 332 332 331 332 333 333 334 331 331 330 327 328 327 327 324 322 319 318 317 317 319 322 326 329 327 326 327 328
322 324 325 326 325 324 324 325 329 332 333 333 334 335 335 334 333 333 332 332 332 332 330 326 323 322 320 320 317 316 315 316 316 316 318 318 319 320 325 324 324 325 324
321 321 323 325 324 324 326 329 331 334 334 334 334 334 333 331 331 332 330 324 323 324 321 318 317 315 314 313 311 311 313 314 315 316 317 316 316 316 319 322 321 321 318
324 323 323 325 326 329 331 332 334 334 333 330 327 325 323 323 324 322 320 319 319 318 315 313 313 312 312 310 310 308 308 310 314 318 313 307 311 313 310 315 314 313 315
326 325 325 328 329 332 332 333 333 328 324 321 320 320 319 319 319 318 316 315 315 312 310 309 308 310 310 308 308 308 305 309 312 305 304 309 310 306 305 302 303 304 312
325 325 327 329 330 331 331 330 327 323 318 316 315 315 313 312 312 312 310 308 309 307 306 305 305 304 305 304 302 303 306 305 303 301 303 303 301 303 301 301 300 301 301
327 328 328 330 331 331 331 331 328 322 316 310 308 306 307 306 306 306 305 305 304 303 302 301 301 301 302 302 300 302 297 298 301 300 300 299 298 298 298 299 298 297 298
326 326 325 324 326 328 328 322 318 316 311 307 303 301 302 302 303 303 302 301 301 300 299 299 299 298 297 299 299 297 293 292 295 298 299 296 295 295 295 297 296 297 300
312 313 313 315 317 321 322 316 313 311 306 303 301 300 299 299 299 300 299 298 298 298 297 297 297 296 296 294 296 297 296 294 291 290 295 294 294 294 293 293 293 297 300
308 308 308 309 311 313 316 316 309 305 303 301 299 297 296 296 297 297 298 296 296 296 295 295 294 293 294 292 292 292 292 291 291 288 286 288 290 291 291 291 294 297 293
305 304 303 303 303 304 305 305 304 303 301 300 298 295 294 295 294 295 296 294 293 293 293 293 293 292 292 290 290 289 290 288 287 286 285 285 285 287 289 291 292 290 289
Wind_Speed
12 12 14 13 11 11 9 11 11 12 13 16 16 15 14 14 13 13 13 13 13 13 13 13 13 13 13 13 13 13 12 11 9 7 4 5 8 9 9 9 11 6 9
16 12 11 12 11 9 10 12 11 11 12 16 15 14 13 13 12 12 12 12 12 12 12 12 12 12 12 11 11 11 10 9 8 8 6 5 3 6 6 5 6 5 7
15 13 10 11 11 11 11 10 11 12 15 16 14 14 12 12 12 11 11 12 11 11 11 11 11 10 10 9 9 8 8 8 9 10 12 4 3 6 7 6 5 6 6
15 12 12 11 11 13 12 12 12 12 13 14 14 13 12 11 10 10 10 10 10 9 9 9 9 8 8 8 8 8 9 10 11 12 7 5 6 7 8 7 9 7 6
13 13 12 11 13 13 14 15 14 14 13 13 12 11 10 10 9 9 10 9 6 8 7 7 7 6 6 7 7 8 9 10 13 11 6 3 3 7 9 8 8 8 8
11 15 12 12 13 14 13 14 13 12 11 11 11 10 9 9 9 8 7 6 8 7 7 5 5 5 6 7 7 7 8 9 12 8 3 1 2 4 7 8 8 9 9
14 12 10 11 11 14 13 12 11 11 10 10 10 10 9 8 8 7 7 6 6 5 5 4 4 5 5 5 6 7 8 8 6 7 6 3 3 4 8 10 10 10 12
15 12 10 9 9 10 11 10 10 10 10 10 9 9 8 7 6 6 5 4 4 3 3 3 3 4 5 6 7 8 8 8 7 8 4 4 3 5 10 11 12 13 13
14 13 10 8 8 10 10 10 9 9 9 9 8 8 7 6 5 4 2 1 1 2 3 4 5 6 7 8 8 8 9 10 6 6 6 1 2 7 11 12 13 13 14
13 13 10 10 8 7 6 8 8 8 8 7 7 6 4 5 6 5 4 2 2 4 6 7 7 8 9 10 10 9 10 11 6 6 4 1 2 6 11 15 15 16 16
4 9 8 8 7 8 8 6 7 7 6 6 6 6 5 4 6 6 5 4 4 6 7 8 8 9 9 11 12 10 9 4 6 4 3 5 0 7 12 15 17 17 17
4 5 6 7 7 8 9 7 6 6 5 4 4 6 5 1 4 1 3 7 7 8 9 9 9 10 6 4 2 7 4 5 4 4 2 2 4 8 13 16 16 16 17
7 4 3 1 5 5 6 5 3 3 2 2 3 5 1 1 2 3 2 2 4 6 4 5 5 4 3 3 4 4 5 5 3 2 4 6 8 11 15 15 15 14 14
11 9 6 7 4 6 4 4 5 4 3 3 5 6 1 1 1 2 0 2 2 3 3 3 3 4 5 6 6 5 5 5 4 3 5 7 7 11 13 14 15 15 15
12 11 10 7 7 5 5 2 4 5 4 5 4 3 0 2 1 2 2 2 2 3 4 4 4 4 5 5 5 6 6 6 6 3 3 8 6 8 10 14 16 17 16
12 12 11 8 7 6 4 4 3 3 3 2 2 3 3 1 1 2 3 4 4 4 4 4 4 4 4 4 5 6 6 5 6 5 4 5 6 6 9 13 15 16 16
8 10 11 7 7 8 6 5 4 3 3 3 2 2 3 3 4 3 3 4 3 3 5 5 5 5 5 5 6 6 5 6 5 5 4 4 5 6 7 11 16 14 17
8 9 8 7 7 7 6 5 4 5 3 3 4 4 6 6 6 5 4 5 5 5 5 5 4 5 5 5 5 5 5 4 5 2 3 3 3 4 4 13 17 13 19
8 9 8 8 8 7 6 5 4 5 5 6 7 5 7 7 7 6 5 5 6 5 5 5 4 4 4 5 6 5 5 5 3 4 7 7 6 7 4 10 13 12 16
9 9 10 7 8 7 5 4 6 7 7 7 5 5 8 6 8 6 5 6 5 5 6 6 5 5 3 4 6 6 6 4 4 5 6 6 7 8 8 7 5 6 14
8 9 9 8 8 5 4 4 5 5 5 5 6 8 9 8 8 8 6 7 6 7 6 7 5 6 5 6 4 4 5 3 6 8 5 5 9 7 9 7 4 4 5
7 8 8 8 8 5 5 4 5 7 6 6 5 7 8 9 9 9 7 6 7 5 7 6 6 4 4 6 3 3 5 6 6 7 5 7 7 6 9 7 7 8 5
7 7 7 7 6 5 9 10 9 9 6 5 5 5 7 9 8 8 8 7 6 5 5 5 6 7 4 4 7 4 4 3 6 3 5 7 7 6 6 6 10 6 6
8 9 9 8 7 6 8 8 9 6 6 5 6 6 6 7 8 8 8 7 6 4 6 5 6 4 4 5 4 7 4 3 3 5 5 6 11 11 10 8 7 6 10
8 7 7 8 7 6 6 7 8 10 7 5 5 7 7 7 7 7 7 7 7 6 6 7 6 7 4 4 3 3 3 4 6 3 4 7 7 9 7 7 6 9 12
7 7 8 9 9 11 11 11 11 12 9 7 5 5 5 4 5 8 8 6 6 6 6 5 6 7 6 5 5 5 4 4 5 3 3 7 7 7 8 4 8 8 9
Wind_Direction
124 132 133 136 130 120 135 144 135 132 128 117 107 102 97 93 92 91 88 85 84 82 79 75 69 61 56 52 48 46 43 39 27 14 6 16 62 47 40 28 19 40 32
127 133 133 135 123 113 136 142 137 132 133 118 111 101 94 92 91 87 86 82 80 78 75 71 65 59 53 47 42 36 33 24 2 330 313 266 86 60 44 34 20 12 16
125 125 134 130 121 103 114 119 127 136 126 117 115 108 100 95 92 85 77 83 76 74 72 69 64 59 52 41 34 27 19 7 342 322 315 302 117 60 16 4 358 354 357
128 144 132 125 118 103 101 103 110 103 114 113 109 102 100 91 88 86 84 75 79 75 72 69 63 55 41 28 20 16 10 358 337 320 309 55 350 39 9 350 340 345 322
141 138 123 128 121 112 103 98 96 94 95 96 95 92 91 90 83 74 72 70 73 77 67 67 55 40 23 14 11 9 5 352 328 308 283 92 304 28 360 341 334 332 325
133 111 124 135 126 119 108 103 103 102 98 97 95 91 90 85 81 83 82 76 49 53 43 70 39 22 9 5 2 356 350 341 326 319 358 253 80 26 344 331 324 318 308
103 113 128 133 121 122 116 111 106 101 99 96 95 96 97 99 98 94 85 72 59 49 40 32 18 5 352 341 334 332 330 328 313 293 281 326 127 17 337 328 325 317 312
120 131 132 121 118 112 106 107 105 104 106 103 104 108 112 107 100 86 72 64 58 40 18 353 332 326 321 321 319 317 314 311 312 301 307 299 107 354 338 328 324 323 318
126 121 126 129 114 108 113 107 105 106 110 113 111 107 102 101 107 118 127 91 18 332 310 309 310 307 304 299 294 287 288 286 278 275 285 269 134 359 336 325 318 316 315
131 135 150 136 146 137 130 116 115 115 112 110 107 112 142 170 178 194 189 203 276 296 297 298 298 296 291 286 276 274 276 284 263 266 283 138 79 348 334 323 321 319 314
93 136 144 146 160 151 136 134 127 122 121 139 152 181 222 215 206 200 165 181 258 272 278 277 277 278 278 280 264 257 265 270 275 285 269 160 40 349 339 329 326 323 321
117 89 140 159 162 161 142 155 177 159 185 187 195 191 218 146 84 280 200 215 231 241 253 257 260 265 276 270 316 244 253 267 303 283 330 177 21 355 342 336 333 327 325
143 103 96 259 149 143 125 147 139 150 76 40 341 313 298 59 212 209 204 217 239 227 268 213 247 229 289 288 281 276 299 302 284 320 330 51 31 5 353 348 345 345 344
161 153 165 217 180 167 148 160 146 138 147 194 211 229 249 262 179 257 239 306 246 211 261 305 318 317 317 317 325 327 322 322 328 321 58 62 52 20 8 2 2 1 7
166 167 178 212 171 164 119 178 135 141 180 197 171 151 103 301 282 307 327 287 333 341 25 348 338 348 344 329 327 317 321 321 325 360 14 30 53 45 28 23 15 11 11
167 167 169 197 153 139 154 141 140 161 138 118 124 123 165 239 301 350 341 12 9 9 354 348 351 313 298 311 313 339 348 353 358 7 11 4 40 62 44 32 22 11 11
159 160 162 159 157 139 166 155 152 119 110 150 121 115 47 12 357 346 38 37 15 8 5 17 350 2 359 345 359 351 341 331 344 27 21 18 29 51 64 27 24 17 6
152 145 144 147 158 152 171 158 146 139 164 107 70 68 49 27 11 51 48 29 3 21 35 7 1 7 354 4 344 316 325 334 342 49 52 13 34 41 42 25 19 21 359
158 147 145 147 160 172 159 172 131 107 78 64 57 47 51 29 19 57 46 22 20 28 32 10 358 14 8 348 334 320 334 318 350 35 28 3 32 47 34 26 13 4 0
148 150 149 161 160 161 155 133 78 75 64 54 42 49 41 35 28 51 45 31 40 37 27 14 4 349 13 1 329 320 306 302 42 46 18 19 37 25 35 13 13 345 3
148 151 151 157 159 144 138 134 112 101 84 69 52 54 50 33 38 35 44 35 28 50 31 20 353 1 4 0 355 330 316 340 66 25 24 28 10 24 22 360 352 10 346
144 145 147 155 144 147 154 150 112 117 96 91 70 59 57 48 35 48 42 41 34 45 35 25 17 355 341 23 355 309 350 333 5 2 24 27 26 10 3 344 16 355 346
126 112 93 88 99 93 97 97 95 97 97 92 68 54 48 50 46 41 44 40 40 44 37 23 24 28 358 355 28 51 353 325 339 330 1 25 14 4 348 357 351 338 20
71 69 74 75 75 87 98 104 121 124 108 94 96 86 65 55 52 46 43 40 39 31 42 20 33 20 20 21 359 4 3 12 338 320 348 350 3 348 338 349 330 359 42
81 86 85 80 73 60 100 111 101 101 102 99 93 98 86 61 46 48 43 40 35 33 26 33 37 25 17 44 17 346 349 324 59 318 301 339 331 322 343 326 339 38 26
94 85 85 81 60 52 63 78 95 104 108 108 102 94 84 72 51 37 43 40 39 38 28 29 32 35 23 37 21 19 31 13 1 356 311 326 320 318 313 355 48 30 19